Regional Weather Roundup
Issued by NWS

Home | Current Version | Previous Version | Graphics & Text | Print | Product List | Glossary On
Versions: 1 2 3 4 5 6 7 8 9 10 11 12 13 14 15 16 17 18 19 20 21 22 23 24 25 26 27 28 29 30 31 32 33 34 35 36 37 38 39 40 41 42 43 44 45 46 47 48 49 50
391
ASUS45 KPSR 220910
RWRAZ

ARIZONA HOURLY REGIONAL WEATHER ROUNDUP
NATIONAL WEATHER SERVICE PHOENIX AZ
200 AM MST SUN APR 22 2018

NOTE: FAIR INDICATES FEW OR NO CLOUDS BELOW 12,000 FEET WITH NO
SIGNIFICANT WEATHER AND/OR OBSTRUCTIONS TO VISIBILITY.

AZZ001>003-036-221000-
NORTHWEST ARIZONA

CITY           SKY/WX    TMP DP  RH WIND       PRES   REMARKS
BULLHEAD CITY  MOCLDY    73  19  13 CALM      29.90S
KINGMAN        MOCLDY    58  22  24 SW3       30.04F
$$

AZZ004>008-015-016-018-221000-
NORTH CENTRAL ARIZONA

CITY           SKY/WX    TMP DP  RH WIND       PRES   REMARKS
GRAND CANYON   PTCLDY    29  22  75 NE6       30.21F WCI  23
WILLIAMS       CLEAR     41  16  36 S12       30.18F
PRESCOTT       PTCLDY    49  24  37 S6        30.12F
FLAGSTAFF      CLEAR     29  17  61 CALM      30.22F
PAYSON         CLEAR     52  18  25 CALM      30.12F
PAGE           CLEAR     57  30  35 SW3       30.11S
$$

AZZ009>014-017-221000-
NORTHEAST ARIZONA

CITY           SKY/WX    TMP DP  RH WIND       PRES   REMARKS
WINSLOW        CLEAR     40  22  48 CALM      30.14F
SAINT JOHNS    CLEAR     45  30  55 CALM      30.16F
WINDOW ROCK    CLEAR     30  21  69 S6        30.23S WCI  24
SHOW LOW       CLEAR     39  23  52 CALM      30.20F
$$

AZZ540-542>544-546-548-221000-
GREATER PHOENIX AREA

CITY           SKY/WX    TMP DP  RH WIND       PRES   REMARKS
PHOENIX        MOCLDY    72  35  25 SE6       29.90S
BUCKEYE        MOCLDY    57  36  44 W3        29.90F
LUKE AFB       CLEAR     64  35  34 N13       29.89F
DEER VALLEY    PTCLDY    69  28  21 NE14      29.91F
SCOTTSDALE     PTCLDY    71  32  23 CALM      29.93F
MESA-GATEWAY   CLEAR     65  31  27 SE3       29.93F
$$

AZZ539-553-221000-
SOUTHWEST MARICOPA COUNTY AND PINAL COUNTY

CITY           SKY/WX    TMP DP  RH WIND       PRES   REMARKS
CASA GRANDE    PTCLDY    62  29  28 NE3       29.93F
GILA BEND      FAIR      67  21  17 S9        29.89F
$$

AZZ503-504-507>509-221000-
SOUTHEAST ARIZONA

CITY           SKY/WX    TMP DP  RH WIND       PRES   REMARKS
TUCSON         MOCLDY    62  27  26 SE6       30.00F
DAVIS-MONTHAN  CLOUDY    60  28  29 SE6       29.98
NOGALES        CLOUDY    59  27  29 E5        30.04F
SIERRA VISTA   CLOUDY    61  22  22 CALM      30.10F
DOUGLAS        CLOUDY    52  14  22 CALM      30.07S
SAFFORD        PTCLDY    57  22  25 E6        30.01F
$$

AZZ532-221000-
SOUTHWEST ARIZONA

CITY           SKY/WX    TMP DP  RH WIND       PRES   REMARKS
YUMA           CLEAR     67  39  35 S3        29.87F
$$

CAZ041-043-047-048-061-525>527-560>570-221000-
SOUTHERN CALIFORNIA

CITY           SKY/WX    TMP DP  RH WIND       PRES   REMARKS
DOWNTOWN L.A.  CLEAR     60  53  77 CALM      29.95F
L.A. AIRPORT   PTCLDY    58  53  84 W6        29.96F
SAN DIEGO      PTCLDY    60  54  80 CALM      29.98F
BURBANK        CLEAR     63  53  70 E3        29.96F
ONTARIO        MOCLDY    64  44  48 CALM      29.96F
RIVERSIDE      PTCLDY    63  43  48 CALM      29.96F
PALM SPRINGS   PTCLDY    76  36  23 W3        29.90F
EL CENTRO NAS  CLEAR     67  27  22 SW5       29.87F
IMPERIAL       CLEAR     68  35  29 W7        29.85F
BLYTHE         PTCLDY    69  28  21 VRB5      29.87F
NEEDLES        PTCLDY    74  19  12 S3        29.90F
$$

NVZ020-UTZ003-221000-
SOUTHERN NEVADA-UTAH

CITY           SKY/WX    TMP DP  RH WIND       PRES   REMARKS
LAS VEGAS      MOCLDY    68  27  21 S6        29.98F
SALT LAKE CITY CLEAR     50  32  50 S8        30.13F
$$

NMZ009-TXZ055-221000-
NEW MEXICO-WEST TEXAS

CITY           SKY/WX    TMP DP  RH WIND       PRES   REMARKS
ALBUQUERQUE    CLEAR     49  29  46 N8        30.17S
EL PASO        PTCLDY    56  26  31 E5        30.08F
$$


........................KEY........................
SKY/WX - SKY CONDITION/WEATHER
TMP    - TEMPERATURE IN FAHRENHEIT
DP     - DEW POINT IN FAHRENHEIT
RH     - RELATIVE HUMIDITY IN PERCENT
WIND   - DIRECTION AND SPEED IN MILES PER HOUR (MPH)
VRB    - VARIABLE WIND DIRECTION
PRES   - MEAN SEA LEVEL PRESSURE IN INCHES OF MERCURY
         F - FALLING PRESSURE   R - RISING PRESSURE
         S - STEADY PRESSURE
VSB    - VISIBILITY IN MILES
HX     - HEAT INDEX IN FAHRENHEIT
WCI    - WIND CHILL INDEX IN FAHRENHEIT
TC     - TEMPERATURE IN CELSIUS WHICH IS ALSO KNOWN AS
         TEMPERATURE IN CENTIGRADE
AFB    - AIR FORCE BASE
         LUKE AFB IS LUKE AIR FORCE BASE
         DAVIS-MONTHAN IS DAVIS-MONTHAN AIR FORCE BASE
NAS    - NAVAL AIR STATION
         EL CENTRO NAS IS EL CENTRO NAVAL AIR STATION
N/A    - NOT AVAILABLE





USA.gov is the U.S. government's official web portal to all federal, state and local government web resources and services.